Location: Adrasan
(36.3319°N, 30.4314°E)
Time: 06:48:39
(UTC+00:00)

Cosmos 1140 Rocket - Pass Details

Date: 09 December 2023
Orbit: 743 x 764 km, 74.1° (Epoch: 29 February)

Event Time Altitude Azimuth Distance (km) Brightness Sun altitude
Rises 15:22:15 0° 339° (NNW) 3,204 6.7 -8.0°
Reaches altitude 10° 15:24:38 10° 336° (NNW) 2,272 6.0 -8.4°
Maximum altitude 15:29:44 66° 255° (WSW) 811 3.9 -9.4°
Drops below altitude 10° 15:34:46 10° 174° (S) 2,248 6.1 -10.3°
Sets 15:37:07 0° 171° (S) 3,166 6.9 -10.7°
